Location: Unspecified
(0.0000°N, 0.0000°E)
Time: 01:01:49
(UTC+00:00)

Vanguard 2 Rocket - Pass Details

Date: 12 December 2017
Orbit: 556 x 3326 km, 32.9° (Epoch: 15 January)

Event Time Altitude Azimuth Distance (km) Brightness Sun altitude
Rises 17:00:33 0° 253° (WSW) 3,649 12.1 12.3°
Reaches altitude 10° 17:02:47 10° 259° (WSW) 2,947 11.7 11.7°
Maximum altitude 17:09:54 48° 332° (NNW) 1,959 8.8 10.1°
Drops below altitude 10° 17:22:25 10° 42° (NE) 5,042 10.2 7.2°
Sets 17:27:35 0° 47° (NE) 6,473 10.6 6.1°
